Weather History for Dutch Harbor, AK

Change the Weather History Date:

Thursday, January 24, 2013

  Actual Average Record
Temperature  
Mean Temperature 35 °F -  
Max Temperature 37 °F 37 °F 57 °F (1997)
Min Temperature 33 °F 29 °F 18 °F (1988)
Degree Days  
Heating Degree Days 30    
Moisture  
Dew Point 31 °F    
Average Humidity 83    
Maximum Humidity 93    
Minimum Humidity 75    
Precipitation  
Precipitation 0.00 in - - ()
Sea Level Pressure  
Sea Level Pressure 29.69 in    
Wind  
Wind Speed 14 mph (NW)    
Max Wind Speed 22 mph    
Max Gust Speed 25 mph    
Visibility 10 miles    
Events Rain    
Averages and records for this station are not official NWS values.
T = Trace of Precipitation, MM = Missing Value Source: NWS Daily Summary

Daily Weather History Graph

Daily Weather History Graph

Search for Another Location

Airport:

Trip Planner

Search our weather history database for the weather conditions in past years. The results will help you decide how hot, cold, wet, or windy it might be!

Date:

Astronomy

Jan. 24, 2013 Rise Set
Actual Time 10:04 AM AKST 6:32 PM AKST
Civil Twilight 9:24 AM AKST 7:12 PM AKST
Nautical Twilight 8:41 AM AKST 7:56 PM AKST
Astronomical Twilight 7:59 AM AKST 8:37 PM AKST
Moon 4:42 PM AKST (1/24) 8:16 AM AKST (1/24)
Length of Visible Light 9h 48m
Length of Day
8h 28m
Waxing Gibbous, 95% of the Moon is Illuminated
Jan 24
Waxing Gibbous
Jan 26
Full
Feb 3
Last Quarter
Feb 9
New
Feb 17
First Quarter

Hourly Weather History & Observations

Time (AKST) Temp. Windchill Dew Point Humidity Pressure Visibility Wind Dir Wind Speed Gust Speed Precip Events Conditions
12:30 AM 35.6 °F 27.1 °F 32.0 °F 87% 29.47 in 10.0 mi North 12.7 mph - 0.00 in Rain Light Rain
12:56 AM 36.0 °F 27.1 °F 32.0 °F 86% 29.50 in 10.0 mi NW 13.8 mph 25.3 mph 0.00 in Rain Light Rain
1:22 AM 35.6 °F 25.2 °F 33.8 °F 93% 29.49 in 10.0 mi NNW 18.4 mph - 0.00 in   Overcast
1:50 AM 35.6 °F 26.2 °F 33.8 °F 93% 29.50 in 8.0 mi NNW 15.0 mph 23.0 mph 0.00 in   Overcast
1:56 AM 36.0 °F 26.0 °F 33.1 °F 89% 29.52 in 10.0 mi North 17.3 mph 24.2 mph 0.00 in   Overcast
2:24 AM 35.6 °F 26.2 °F 33.8 °F 93% 29.51 in 7.0 mi NNW 15.0 mph 21.9 mph 0.00 in   Overcast
2:56 AM 37.0 °F 27.7 °F 33.1 °F 86% 29.54 in 10.0 mi NW 16.1 mph - 0.00 in   Overcast
3:56 AM 36.0 °F 24.7 °F 33.1 °F 89% 29.56 in 10.0 mi North 21.9 mph - N/A   Overcast
4:25 AM 35.6 °F 24.2 °F 33.8 °F 93% 29.55 in 9.0 mi North 21.9 mph 25.3 mph 0.00 in   Overcast
4:34 AM 35.6 °F 25.5 °F 33.8 °F 93% 29.56 in 10.0 mi NNW 17.3 mph 23.0 mph 0.00 in   Overcast
4:56 AM 37.0 °F 27.0 °F 33.1 °F 86% 29.59 in 10.0 mi North 18.4 mph - 0.00 in   Overcast
5:50 AM 37.4 °F 27.5 °F 33.8 °F 87% 29.59 in 10.0 mi NW 18.4 mph - 0.00 in   Overcast
5:56 AM 37.0 °F 27.7 °F 33.1 °F 86% 29.61 in 10.0 mi NW 16.1 mph - 0.00 in   Overcast
6:30 AM 37.4 °F 27.5 °F 32.0 °F 81% 29.60 in 10.0 mi NW 18.4 mph - N/A   Overcast
6:52 AM 37.4 °F 27.5 °F 32.0 °F 81% 29.61 in 10.0 mi WNW 18.4 mph - N/A   Overcast
6:56 AM 37.9 °F 28.2 °F 32.0 °F 79% 29.63 in 10.0 mi NW 18.4 mph - N/A   Overcast
7:12 AM 37.4 °F 27.8 °F 32.0 °F 81% 29.63 in 10.0 mi WNW 17.3 mph - N/A   Overcast
7:56 AM 37.0 °F 27.7 °F 32.0 °F 82% 29.66 in 10.0 mi NW 16.1 mph - 0.00 in Rain Light Rain
7:57 AM 37.4 °F 28.2 °F 32.0 °F 81% 29.64 in 10.0 mi NW 16.1 mph - 0.00 in Rain Light Rain
8:56 AM 37.0 °F 29.8 °F 32.0 °F 82% 29.68 in 10.0 mi WNW 10.4 mph - 0.00 in Rain Light Rain
9:56 AM 36.0 °F 29.0 °F 32.0 °F 86% 29.70 in 7.0 mi WNW 9.2 mph - 0.00 in Rain Light Rain
10:09 AM 35.6 °F 27.5 °F 32.0 °F 87% 29.69 in 7.0 mi West 11.5 mph - 0.00 in Rain Light Rain
10:10 AM 35.6 °F 27.5 °F 30.2 °F 81% 29.69 in 10.0 mi West 11.5 mph - 0.00 in   Overcast
10:23 AM 35.6 °F 27.1 °F 30.2 °F 81% 29.70 in 10.0 mi West 12.7 mph - 0.00 in   Mostly Cloudy
10:56 AM 36.0 °F 27.5 °F 32.0 °F 86% 29.73 in 10.0 mi NNW 12.7 mph - 0.00 in   Mostly Cloudy
11:08 AM 35.6 °F 27.5 °F 32.0 °F 87% 29.72 in 10.0 mi NW 11.5 mph - N/A   Overcast
11:37 AM 35.6 °F 28.6 °F 30.2 °F 81% 29.72 in 10.0 mi NW 9.2 mph - N/A   Overcast
11:56 AM 36.0 °F 28.0 °F 30.9 °F 82% 29.75 in 10.0 mi NW 11.5 mph - N/A   Overcast
12:34 PM 35.6 °F 28.0 °F 30.2 °F 81% 29.73 in 10.0 mi NW 10.4 mph - N/A   Mostly Cloudy
12:56 PM 36.0 °F 26.3 °F 30.9 °F 82% 29.75 in 10.0 mi NW 16.1 mph - N/A   Mostly Cloudy
1:01 PM 35.6 °F 27.5 °F 30.2 °F 81% 29.74 in 10.0 mi NW 11.5 mph - N/A   Mostly Cloudy
1:56 PM 37.0 °F 31.0 °F 30.0 °F 76% 29.77 in 10.0 mi NNW 8.1 mph - N/A   Mostly Cloudy
2:26 PM 35.6 °F 27.1 °F 28.4 °F 75% 29.76 in 10.0 mi NW 12.7 mph - N/A   Mostly Cloudy
2:56 PM 37.0 °F 28.5 °F 30.0 °F 76% 29.78 in 10.0 mi NW 13.8 mph - N/A   Overcast
3:56 PM 37.0 °F 32.4 °F 30.0 °F 76% 29.79 in 10.0 mi WNW 5.8 mph - N/A   Overcast
4:14 PM 37.4 °F 33.8 °F 30.2 °F 75% 29.77 in 10.0 mi WNW 4.6 mph - N/A   Overcast
4:56 PM 37.0 °F 31.0 °F 30.0 °F 76% 29.80 in 10.0 mi West 8.1 mph - N/A   Overcast
5:56 PM 36.0 °F 31.1 °F 28.9 °F 76% 29.79 in 10.0 mi West 5.8 mph - N/A   Mostly Cloudy
6:08 PM 35.6 °F 29.2 °F 30.2 °F 81% 29.78 in 10.0 mi WNW 8.1 mph - N/A   Scattered Clouds
6:50 PM 35.6 °F 28.0 °F 30.2 °F 81% 29.80 in 10.0 mi West 10.4 mph - N/A   Partly Cloudy
6:56 PM 36.0 °F 28.5 °F 28.9 °F 76% 29.82 in 10.0 mi West 10.4 mph - N/A   Scattered Clouds
7:12 PM 35.6 °F 28.0 °F 28.4 °F 75% 29.81 in 10.0 mi WSW 10.4 mph - N/A   Mostly Cloudy
7:56 PM 35.1 °F 30.1 °F 30.0 °F 82% 29.83 in 10.0 mi Variable 5.8 mph - N/A   Overcast
9:56 PM 35.1 °F - 28.9 °F 78% 29.85 in 10.0 mi Calm Calm - N/A   Overcast
10:56 PM 34.0 °F 29.8 °F 28.9 °F 82% 29.86 in 10.0 mi South 4.6 mph - N/A   Mostly Cloudy
11:11 PM 33.8 °F - 28.4 °F 81% 29.84 in 10.0 mi Calm Calm - N/A   Partly Cloudy
11:56 PM 33.1 °F - 27.0 °F 78% 29.86 in 10.0 mi Calm Calm - N/A   Scattered Clouds